Change the Weather History Date:

Monday, November 5, 2012

  Actual Average (KSNY) Record (KSNY)
Temperature  
Mean Temperature 50 °F 43 °F  
Max Temperature 63 °F 57 °F 81 °F (2009)
Min Temperature 36 °F 28 °F 0 °F (1967)
Degree Days  
Heating Degree Days 16 22  
Month to date heating degree days 108  
Since 1 July heating degree days 711  
Cooling Degree Days 0 0  
Month to date cooling degree days 0  
Year to date cooling degree days 830  
Moisture  
Dew Point 32 °F    
Average Humidity 55    
Maximum Humidity 83    
Minimum Humidity 27    
Precipitation  
Precipitation 0.00 in 0.02 in 0.39 in (2011)
Month to date precipitation 0.10  
Year to date precipitation 17.53  
Sea Level Pressure  
Sea Level Pressure 30.17 in    
Wind  
Wind Speed 10 mph (WNW)    
Max Wind Speed 20 mph    
Max Gust Speed 25 mph    
Visibility 10 miles    
Events      
T = Trace of Precipitation, MM = Missing Value Source: NWS Daily Summary

Daily Weather History Graph

Daily Weather History Graph

Search for Another Location

Airport or City:

Trip Planner

Search our weather history database for the weather conditions in past years. The results will help you decide how hot, cold, wet, or windy it might be!

Date:

Astronomy

Nov. 05, 2012 Rise Set
Actual Time 7:31 AM CST 5:44 PM CST
Civil Twilight 7:02 AM CST 6:13 PM CST
Nautical Twilight 6:29 AM CST 6:46 PM CST
Astronomical Twilight 5:57 AM CST 7:18 PM CST
Moon 11:24 PM CST (11/5) 12:52 PM CST (11/5)
Length of Visible Light 11h 11m
Length of Day
10h 13m
Waning Gibbous, 62% of the Moon is Illuminated
Nov 5
Waning Gibbous
Nov 6
Last Quarter
Nov 13
New
Nov 20
First Quarter
Nov 28
Full

Hourly Weather History & Observations

Time (CST) Temp. Windchill Dew Point Humidity Pressure Visibility Wind Dir Wind Speed Gust Speed Precip Events Conditions
12:15 AM 41.4 °F 36.8 °F 33.4 °F 73% 30.26 in 10.0 mi NW 6.9 mph - N/A   Clear
12:35 AM 38.5 °F 32.7 °F 32.2 °F 78% 30.26 in 10.0 mi WNW 8.1 mph - N/A   Scattered Clouds
12:55 AM 37.6 °F 31.6 °F 32.4 °F 81% 30.26 in 10.0 mi West 8.1 mph - N/A   Scattered Clouds
1:15 AM 38.8 °F 32.6 °F 33.4 °F 81% 30.27 in 10.0 mi West 9.2 mph - N/A   Mostly Cloudy
1:35 AM 40.3 °F 34.4 °F 34.3 °F 79% 30.27 in 10.0 mi WNW 9.2 mph - N/A   Overcast
1:55 AM 41.2 °F 35.0 °F 34.7 °F 78% 30.26 in 10.0 mi WNW 10.4 mph - N/A   Overcast
2:15 AM 42.8 °F 36.6 °F 34.3 °F 72% 30.26 in 10.0 mi WNW 11.5 mph - N/A   Overcast
2:35 AM 42.3 °F 35.5 °F 33.8 °F 72% 30.26 in 10.0 mi WNW 12.7 mph - N/A   Mostly Cloudy
2:55 AM 40.6 °F 34.8 °F 33.6 °F 76% 30.27 in 10.0 mi WNW 9.2 mph - N/A   Mostly Cloudy
3:15 AM 39.4 °F 33.2 °F 33.3 °F 79% 30.26 in 10.0 mi WNW 9.2 mph - N/A   Mostly Cloudy
3:35 AM 39.7 °F 33.7 °F 33.4 °F 78% 30.25 in 10.0 mi WNW 9.2 mph - N/A   Mostly Cloudy
3:55 AM 38.7 °F 32.4 °F 32.9 °F 80% 30.25 in 10.0 mi West 9.2 mph - N/A   Overcast
4:15 AM 38.8 °F 32.6 °F 32.9 °F 79% 30.24 in 10.0 mi West 9.2 mph - N/A   Overcast
4:35 AM 36.9 °F 30.1 °F 32.0 °F 83% 30.24 in 10.0 mi WNW 9.2 mph - N/A   Scattered Clouds
4:55 AM 37.4 °F 29.8 °F 32.2 °F 81% 30.24 in 10.0 mi WNW 11.5 mph - N/A   Clear
5:15 AM 37.0 °F 29.8 °F 32.2 °F 83% 30.24 in 10.0 mi WNW 10.4 mph - N/A   Clear
5:35 AM 38.8 °F 33.8 °F 32.9 °F 79% 30.24 in 10.0 mi WNW 6.9 mph - N/A   Scattered Clouds
6:15 AM 40.1 °F 33.6 °F 33.1 °F 76% 30.23 in 10.0 mi WNW 10.4 mph - N/A   Overcast
6:35 AM 40.5 °F 34.6 °F 33.1 °F 75% 30.23 in 10.0 mi WNW 9.2 mph - N/A   Overcast
6:55 AM 41.0 °F 35.8 °F 33.3 °F 74% 30.21 in 10.0 mi NW 8.1 mph - N/A   Overcast
7:15 AM 41.0 °F 35.8 °F 33.3 °F 74% 30.22 in 10.0 mi WNW 8.1 mph - N/A   Overcast
7:35 AM 38.1 °F 31.2 °F 32.0 °F 79% 30.22 in 10.0 mi West 10.4 mph - N/A   Scattered Clouds
7:55 AM 37.4 °F 30.8 °F 32.0 °F 81% 30.22 in 10.0 mi West 9.2 mph - N/A   Clear
8:15 AM 38.3 °F 32.5 °F 32.0 °F 78% 30.23 in 10.0 mi WNW 8.1 mph - N/A   Clear
8:35 AM 39.6 °F 34.7 °F 32.0 °F 74% 30.23 in 10.0 mi West 6.9 mph - N/A   Clear
8:55 AM 41.4 °F 36.2 °F 32.0 °F 69% 30.22 in 10.0 mi WSW 8.1 mph - N/A   Clear
9:15 AM 43.2 °F 38.4 °F 32.0 °F 65% 30.23 in 10.0 mi West 8.1 mph - N/A   Clear
9:35 AM 46.0 °F 42.5 °F 32.2 °F 58% 30.22 in 10.0 mi West 6.9 mph - N/A   Clear
9:55 AM 50.4 °F - 31.1 °F 48% 30.21 in 10.0 mi WNW 9.2 mph - N/A   Clear
10:15 AM 50.4 °F - 31.1 °F 48% 30.21 in 10.0 mi WNW 12.7 mph - N/A   Clear
10:35 AM 52.7 °F - 31.6 °F 45% 30.20 in 10.0 mi WNW 15.0 mph - N/A   Clear
10:55 AM 53.6 °F - 31.5 °F 43% 30.20 in 10.0 mi West 13.8 mph - N/A   Clear
11:15 AM 54.5 °F - 31.3 °F 41% 30.19 in 10.0 mi West 11.5 mph - N/A   Clear
11:35 AM 55.6 °F - 31.3 °F 40% 30.19 in 10.0 mi WNW 11.5 mph 16.1 mph N/A   Clear
11:55 AM 57.4 °F - 32.0 °F 38% 30.17 in 10.0 mi WNW 11.5 mph 17.3 mph N/A   Clear
12:15 PM 59.9 °F - 31.1 °F 34% 30.16 in 10.0 mi NW 12.7 mph 19.6 mph N/A   Clear
12:35 PM 61.7 °F - 30.0 °F 30% 30.15 in 10.0 mi WNW 18.4 mph 24.2 mph N/A   Clear
12:55 PM 61.7 °F - 29.8 °F 30% 30.13 in 10.0 mi NW 13.8 mph 21.9 mph N/A   Clear
1:15 PM 61.9 °F - 29.7 °F 30% 30.13 in 10.0 mi NW 16.1 mph 21.9 mph N/A   Clear
1:35 PM 62.6 °F - 29.5 °F 29% 30.11 in 10.0 mi NW 18.4 mph 24.2 mph N/A   Clear
1:55 PM 63.7 °F - 29.3 °F 27% 30.10 in 10.0 mi NW 15.0 mph 25.3 mph N/A   Clear
2:15 PM 62.8 °F - 29.1 °F 28% 30.10 in 10.0 mi NNW 19.6 mph 25.3 mph N/A   Clear
2:35 PM 62.6 °F - 29.3 °F 28% 30.09 in 10.0 mi NW 13.8 mph 21.9 mph N/A   Clear
2:55 PM 62.1 °F - 29.1 °F 29% 30.08 in 10.0 mi NW 16.1 mph 21.9 mph N/A   Clear
3:15 PM 63.1 °F - 29.1 °F 28% 30.07 in 10.0 mi NNW 15.0 mph 21.9 mph N/A   Clear
3:35 PM 62.6 °F - 29.1 °F 28% 30.07 in 10.0 mi NW 13.8 mph - N/A   Clear
3:55 PM 61.9 °F - 29.3 °F 29% 30.08 in 10.0 mi NW 12.7 mph - N/A   Clear
4:15 PM 61.7 °F - 29.5 °F 30% 30.08 in 10.0 mi NW 12.7 mph 16.1 mph N/A   Clear
4:35 PM 61.0 °F - 29.8 °F 31% 30.08 in 10.0 mi NNW 9.2 mph - N/A   Clear
4:55 PM 60.4 °F - 30.2 °F 32% 30.09 in 10.0 mi NNW 10.4 mph - N/A   Clear
5:15 PM 59.0 °F - 30.0 °F 33% 30.08 in 10.0 mi NW 8.1 mph - N/A   Clear
5:35 PM 57.2 °F - 30.0 °F 36% 30.07 in 10.0 mi NW 9.2 mph - N/A   Clear
5:55 PM 54.9 °F - 30.0 °F 39% 30.07 in 10.0 mi NW 6.9 mph - N/A   Clear
6:15 PM 52.9 °F - 30.2 °F 42% 30.07 in 10.0 mi WNW 9.2 mph - N/A   Clear
6:35 PM 53.2 °F - 30.2 °F 41% 30.08 in 10.0 mi WNW 10.4 mph - N/A   Clear
6:55 PM 52.9 °F - 30.7 °F 43% 30.08 in 10.0 mi WNW 12.7 mph - N/A   Clear
7:15 PM 51.1 °F - 31.1 °F 46% 30.09 in 10.0 mi WNW 10.4 mph - N/A   Clear
7:35 PM 50.9 °F - 31.1 °F 47% 30.09 in 10.0 mi WNW 11.5 mph - N/A   Clear
7:55 PM 51.8 °F - 31.3 °F 46% 30.09 in 10.0 mi WNW 12.7 mph - N/A   Clear
8:15 PM 51.8 °F - 31.5 °F 46% 30.10 in 10.0 mi WNW 12.7 mph - N/A   Clear
8:35 PM 49.6 °F - 31.6 °F 50% 30.11 in 10.0 mi WNW 10.4 mph - N/A   Clear
8:55 PM 47.7 °F - 31.3 °F 53% 30.11 in 10.0 mi WNW 9.2 mph - N/A   Clear
9:15 PM 47.3 °F - 31.5 °F 54% 30.12 in 10.0 mi WNW 9.2 mph - N/A   Clear
9:35 PM 48.7 °F - 31.8 °F 52% 30.12 in 10.0 mi WNW 10.4 mph - N/A   Clear
9:55 PM 49.1 °F - 31.8 °F 51% 30.12 in 10.0 mi WNW 9.2 mph - N/A   Clear
10:15 PM 47.5 °F - 31.6 °F 54% 30.11 in 10.0 mi WNW 8.1 mph - N/A   Clear
10:35 PM 47.7 °F - 31.8 °F 54% 30.11 in 10.0 mi WNW 11.5 mph - N/A   Clear
10:55 PM 49.5 °F - 32.0 °F 51% 30.11 in 10.0 mi WNW 12.7 mph - N/A   Clear
11:15 PM 48.6 °F - 31.8 °F 52% 30.12 in 10.0 mi WNW 11.5 mph - N/A   Clear
11:35 PM 46.4 °F 41.5 °F 31.5 °F 56% 30.13 in 10.0 mi WNW 10.4 mph - N/A   Clear
11:55 PM 45.9 °F 40.4 °F 31.5 °F 57% 30.13 in 10.0 mi WNW 11.5 mph - N/A   Clear